,,PA_Meas_PMT16A,,PR_Meas_QMR101_102,,RH_Meas_QMH101,,SR_Meas_QMS101,,TA_Meas_QMH101,,GenWind,,GenWind,
time,status,PA,status,PR,status,RH,status,SR,status,TA,status,DirAvg,status,SpdAvg,
2012-08-17, 00:00:04,VALID,917.703,VALID,0,VALID,97.7246,VALID,0,VALID,18.7113,VALID,131,VALID,0,
2012-08-17, 00:01:04,VALID,917.682,VALID,0,VALID,97.7551,VALID,0,VALID,18.7098,VALID,131,VALID,0,
2012-08-17, 00:02:04,VALID,917.658,VALID,0,VALID,97.7322,VALID,0,VALID,18.7308,VALID,131,VALID,0,
2012-08-17, 00:03:04,VALID,917.677,VALID,0,VALID,97.7551,VALID,0,VALID,18.7127,VALID,131,VALID,0,
2012-08-17, 00:04:04,VALID,917.666,VALID,0,VALID,97.7398,VALID,0,VALID,18.7127,VALID,131,VALID,0,
2012-08-17, 00:05:04,VALID,917.68,VALID,0,VALID,97.7322,VALID,0,VALID,18.7127,VALID,131,VALID,0,
2012-08-17, 00:06:04,VALID,917.687,VALID,0,VALID,97.7474,VALID,0,VALID,18.7127,VALID,131,VALID,0,
2012-08-17, 00:07:04,VALID,917.695,VALID,0,VALID,97.7474,VALID,0,VALID,18.6932,VALID,131,VALID,0,
2012-08-17, 00:08:04,VALID,917.696,VALID,0,VALID,97.7551,VALID,0,VALID,18.6737,VALID,131,VALID,0,
2012-08-17, 00:09:04,VALID,917.677,VALID,0,VALID,97.7246,VALID,0,VALID,18.6737,VALID,131,VALID,0,
2012-08-17, 00:10:04,VALID,917.68,VALID,0,VALID,97.7398,VALID,0,VALID,18.6542,VALID,131,VALID,0,
2012-08-17, 00:11:04,VALID,917.647,VALID,0,VALID,97.7474,VALID,0,VALID,18.6737,VALID,131,VALID,0,
2012-08-17, 00:12:04,VALID,917.63,VALID,0,VALID,97.7246,VALID,0,VALID,18.7127,VALID,131,VALID,0,
2012-08-17, 00:13:04,VALID,917.58,VALID,0,VALID,97.7246,VALID,0,VALID,18.6723,VALID,131,VALID,0,
2012-08-17, 00:14:04,VALID,917.563,VALID,0,VALID,97.7474,VALID,0,VALID,18.6737,VALID,131,VALID,0,
2012-08-17, 00:15:04,VALID,917.53,VALID,0,VALID,97.7246,VALID,0,VALID,18.6737,VALID,131,VALID,0,
2012-08-17, 00:16:04,VALID,917.512,VALID,0,VALID,97.7474,VALID,0,VALID,18.6737,VALID,131,VALID,0,
2012-08-17, 00:17:04,VALID,917.466,VALID,0,VALID,97.7398,VALID,0,VALID,18.6737,VALID,152,VALID,0,
2012-08-17, 00:18:04,VALID,917.462,VALID,0,VALID,97.7398,VALID,0,VALID,18.6918,VALID,152,VALID,0,
2012-08-17, 00:19:04,VALID,917.431,VALID,0,VALID,97.7551,VALID,0,VALID,18.6918,VALID,152,VALID,0,
2012-08-17, 00:20:04,VALID,917.399,VALID,0,VALID,97.7856,VALID,0,VALID,18.6918,VALID,152,VALID,0,
2012-08-17, 00:21:04,VALID,917.377,VALID,0,VALID,97.7627,VALID,0,VALID,18.7113,VALID,152,VALID,0,
2012-08-17, 00:22:04,VALID,917.394,VALID,0,VALID,97.7551,VALID,0,VALID,18.7308,VALID,152,VALID,0,
2012-08-17, 00:23:04,VALID,917.387,VALID,0,VALID,97.7551,VALID,0,VALID,18.7308,VALID,152,VALID,0,
2012-08-17, 00:24:04,VALID,917.39,VALID,0,VALID,97.7627,VALID,0,VALID,18.7098,VALID,152,VALID,0,
2012-08-17, 00:25:04,VALID,917.391,VALID,0,VALID,97.7627,VALID,0,VALID,18.7113,VALID,152,VALID,0,
2012-08-17, 00:26:04,VALID,917.394,VALID,0,VALID,97.7779,VALID,0,VALID,18.7113,VALID,152,VALID,0,
2012-08-17, 00:27:04,VALID,917.392,VALID,0,VALID,97.7474,VALID,0.107441,VALID,18.7098,VALID,152,VALID,0,
2012-08-17, 00:28:04,VALID,917.387,VALID,0,VALID,97.7779,VALID,0,VALID,18.6723,VALID,152,VALID,0,
2012-08-17, 00:29:04,VALID,917.36,VALID,0,VALID,97.7779,VALID,0,VALID,18.6918,VALID,152,VALID,0,
2012-08-17, 00:30:04,VALID,917.37,VALID,0,VALID,97.7779,VALID,0,VALID,18.6333,VALID,135,VALID,0,
2012-08-17, 00:31:04,VALID,917.3,VALID,0,VALID,97.7627,VALID,0.107441,VALID,18.6138,VALID,114,VALID,0,
2012-08-17, 00:32:04,VALID,917.287,VALID,0,VALID,97.7627,VALID,0.107441,VALID,18.6124,VALID,114,VALID,0,
2012-08-17, 00:33:04,VALID,917.259,VALID,0,VALID,97.7703,VALID,0,VALID,18.6333,VALID,115,VALID,0,
2012-08-17, 00:34:04,VALID,917.229,VALID,0,VALID,97.7627,VALID,0,VALID,18.6528,VALID,117,VALID,0,
2012-08-17, 00:35:04,VALID,917.211,VALID,0,VALID,97.7779,VALID,0,VALID,18.6138,VALID,130,VALID,0,
2012-08-17, 00:36:04,VALID,917.205,VALID,0,VALID,97.7703,VALID,0,VALID,18.6138,VALID,129,VALID,0,
2012-08-17, 00:37:04,VALID,917.197,VALID,0,VALID,97.7398,VALID,0,VALID,18.6333,VALID,129,VALID,0,
2012-08-17, 00:38:04,VALID,917.207,VALID,0,VALID,97.7703,VALID,0,VALID,18.6333,VALID,129,VALID,0,
2012-08-17, 00:39:04,VALID,917.208,VALID,0,VALID,97.7703,VALID,0,VALID,18.6528,VALID,131,VALID,0,
2012-08-17, 00:40:04,VALID,917.192,VALID,0,VALID,97.7779,VALID,0,VALID,18.6333,VALID,143,VALID,0,
2012-08-17, 00:41:04,VALID,917.162,VALID,0,VALID,97.7856,VALID,0,VALID,18.5929,VALID,138,VALID,0,
2012-08-17, 00:42:04,VALID,917.13,VALID,0,VALID,97.7856,VALID,0,VALID,18.6138,VALID,138,VALID,0,
2012-08-17, 00:43:04,VALID,917.057,VALID,0,VALID,97.7627,VALID,0,VALID,18.6138,VALID,138,VALID,0,
2012-08-17, 00:44:04,VALID,917.026,VALID,0,VALID,97.7932,VALID,0,VALID,18.5943,VALID,138,VALID,0,
2012-08-17, 00:45:04,VALID,916.991,VALID,0,VALID,97.7779,VALID,0,VALID,18.5943,VALID,138,VALID,0,
2012-08-17, 00:46:04,VALID,916.961,VALID,0,VALID,97.7779,VALID,0,VALID,18.5943,VALID,138,VALID,0,
2012-08-17, 00:47:04,VALID,916.971,VALID,0,VALID,97.7703,VALID,0,VALID,18.5734,VALID,138,VALID,0,
2012-08-17, 00:48:04,VALID,916.94,VALID,0,VALID,97.7779,VALID,0.107441,VALID,18.5748,VALID,138,VALID,0,
2012-08-17, 00:49:04,VALID,916.95,VALID,0,VALID,97.7932,VALID,0,VALID,18.5553,VALID,138,VALID,0,
2012-08-17, 00:50:04,VALID,916.932,VALID,0,VALID,97.7779,VALID,0,VALID,18.5149,VALID,138,VALID,0,
2012-08-17, 00:51:04,VALID,916.937,VALID,0,VALID,97.7779,VALID,0,VALID,18.4968,VALID,138,VALID,0,
2012-08-17, 00:52:04,VALID,916.871,VALID,0,VALID,97.7779,VALID,0,VALID,18.4773,VALID,138,VALID,0,
2012-08-17, 00:53:04,VALID,916.899,VALID,0,VALID,97.7627,VALID,0,VALID,18.4578,VALID,138,VALID,0,
2012-08-17, 00:54:04,VALID,916.902,VALID,0,VALID,97.7932,VALID,0,VALID,18.4369,VALID,138,VALID,0,
2012-08-17, 00:55:04,VALID,916.909,VALID,0,VALID,97.8084,VALID,0,VALID,18.4578,VALID,138,VALID,0,
2012-08-17, 00:56:04,VALID,916.945,VALID,0,VALID,97.7932,VALID,0,VALID,18.4564,VALID,138,VALID,0,
2012-08-17, 00:57:04,VALID,916.99,VALID,0,VALID,97.7932,VALID,0,VALID,18.4954,VALID,138,VALID,0,
2012-08-17, 00:58:04,VALID,917.015,VALID,0,VALID,97.7932,VALID,0,VALID,18.5163,VALID,138,VALID,0,
2012-08-17, 00:59:04,VALID,917.02,VALID,0,VALID,97.7856,VALID,0,VALID,18.4773,VALID,138,VALID,0,
2012-08-17, 01:00:04,VALID,917.039,VALID,0,VALID,97.7856,VALID,0,VALID,18.4773,VALID,138,VALID,0,
2012-08-17, 01:01:04,VALID,917.06,VALID,0,VALID,97.7856,VALID,0,VALID,18.4773,VALID,138,VALID,0,
2012-08-17, 01:02:04,VALID,917.028,VALID,0,VALID,97.8084,VALID,0,VALID,18.5177,VALID,138,VALID,0,
2012-08-17, 01:03:04,VALID,916.988,VALID,0,VALID,97.816,VALID,0,VALID,18.4759,VALID,138,VALID,0,
2012-08-17, 01:04:04,VALID,917,VALID,0,VALID,97.8084,VALID,0,VALID,18.5358,VALID,138,VALID,0,
2012-08-17, 01:05:04,VALID,916.985,VALID,0,VALID,97.7856,VALID,0.107441,VALID,18.5748,VALID,138,VALID,0,
2012-08-17, 01:06:04,VALID,916.985,VALID,0,VALID,97.7932,VALID,0.107441,VALID,18.5734,VALID,138,VALID,0,
2012-08-17, 01:07:04,VALID,916.962,VALID,0,VALID,97.7932,VALID,0.107441,VALID,18.6138,VALID,138,VALID,0,
2012-08-17, 01:08:04,VALID,916.952,VALID,0,VALID,97.7932,VALID,0,VALID,18.6333,VALID,138,VALID,0,
2012-08-17, 01:09:04,VALID,916.926,VALID,0,VALID,97.8008,VALID,0,VALID,18.6932,VALID,138,VALID,0,
2012-08-17, 01:10:04,VALID,916.95,VALID,0,VALID,97.8084,VALID,0,VALID,18.6918,VALID,138,VALID,0,
2012-08-17, 01:11:04,VALID,916.932,VALID,0,VALID,97.8008,VALID,0,VALID,18.7308,VALID,138,VALID,0,
2012-08-17, 01:12:04,VALID,916.919,VALID,0,VALID,97.8008,VALID,0,VALID,18.7308,VALID,138,VALID,0,
2012-08-17, 01:13:04,VALID,916.91,VALID,0,VALID,97.8084,VALID,0.107441,VALID,18.7503,VALID,138,VALID,0,
2012-08-17, 01:14:04,VALID,916.897,VALID,0,VALID,97.7856,VALID,0,VALID,18.7293,VALID,138,VALID,0,
2012-08-17, 01:15:04,VALID,916.87,VALID,0,VALID,97.7856,VALID,0.107441,VALID,18.7308,VALID,138,VALID,0,
2012-08-17, 01:16:04,VALID,916.852,VALID,0,VALID,97.7856,VALID,0,VALID,18.7503,VALID,145,VALID,0,
2012-08-17, 01:17:04,VALID,916.841,VALID,0,VALID,97.8008,VALID,0.107441,VALID,18.7293,VALID,147,VALID,0,
2012-08-17, 01:18:04,VALID,916.83,VALID,0,VALID,97.816,VALID,0,VALID,18.7503,VALID,147,VALID,0,
2012-08-17, 01:19:04,VALID,916.807,VALID,0,VALID,97.7856,VALID,0,VALID,18.7697,VALID,147,VALID,0,
2012-08-17, 01:20:04,VALID,916.803,VALID,0,VALID,97.8008,VALID,0,VALID,18.7892,VALID,147,VALID,0,
2012-08-17, 01:21:04,VALID,916.808,VALID,0,VALID,97.7932,VALID,0,VALID,18.8282,VALID,147,VALID,0,
2012-08-17, 01:22:04,VALID,916.843,VALID,0,VALID,97.7932,VALID,0,VALID,18.8087,VALID,147,VALID,0,
2012-08-17, 01:23:04,VALID,916.885,VALID,0,VALID,97.7932,VALID,0,VALID,18.8477,VALID,147,VALID,0,
2012-08-17, 01:24:04,VALID,916.899,VALID,0,VALID,97.7779,VALID,0,VALID,18.8282,VALID,147,VALID,0,
2012-08-17, 01:25:04,VALID,916.931,VALID,0,VALID,97.7932,VALID,0.107441,VALID,18.8073,VALID,147,VALID,0,
2012-08-17, 01:26:04,VALID,916.938,VALID,0,VALID,97.7779,VALID,0,VALID,18.8477,VALID,147,VALID,0,
2012-08-17, 01:27:04,VALID,916.945,VALID,0,VALID,97.8008,VALID,0,VALID,18.8477,VALID,147,VALID,0,
2012-08-17, 01:28:04,VALID,916.949,VALID,0,VALID,97.7779,VALID,0.107441,VALID,18.8672,VALID,147,VALID,0,
2012-08-17, 01:29:04,VALID,916.952,VALID,0,VALID,97.7779,VALID,0,VALID,18.8853,VALID,147,VALID,0,
2012-08-17, 01:30:04,VALID,916.901,VALID,0,VALID,97.7779,VALID,0.107441,VALID,18.9048,VALID,147,VALID,0,
2012-08-17, 01:31:04,VALID,916.918,VALID,0,VALID,97.7779,VALID,0,VALID,18.9647,VALID,147,VALID,0,
2012-08-17, 01:32:04,VALID,916.907,VALID,0,VALID,97.7703,VALID,0,VALID,19.0232,VALID,147,VALID,0,
2012-08-17, 01:33:04,VALID,916.875,VALID,0,VALID,97.7932,VALID,0,VALID,19.0037,VALID,147,VALID,0,
2012-08-17, 01:34:04,VALID,916.851,VALID,0,VALID,97.7703,VALID,0,VALID,19.0247,VALID,147,VALID,0,
2012-08-17, 01:35:04,VALID,916.835,VALID,0,VALID,97.7703,VALID,0,VALID,19.0247,VALID,147,VALID,0,
2012-08-17, 01:36:04,VALID,916.84,VALID,0,VALID,97.7703,VALID,0,VALID,19.0037,VALID,147,VALID,0,
2012-08-17, 01:37:04,VALID,916.807,VALID,0,VALID,97.7551,VALID,0,VALID,19.0247,VALID,147,VALID,0,
2012-08-17, 01:38:04,VALID,916.766,VALID,0,VALID,97.7627,VALID,0,VALID,19.0247,VALID,147,VALID,0,
2012-08-17, 01:39:04,VALID,916.732,VALID,0,VALID,97.7627,VALID,0,VALID,19.0247,VALID,147,VALID,0,
2012-08-17, 01:40:04,VALID,916.691,VALID,0,VALID,97.7627,VALID,0,VALID,19.0637,VALID,147,VALID,0,
2012-08-17, 01:41:04,VALID,916.659,VALID,0,VALID,97.7551,VALID,0,VALID,19.0637,VALID,147,VALID,0,
2012-08-17, 01:42:04,VALID,916.651,VALID,0,VALID,97.7627,VALID,0,VALID,19.0637,VALID,147,VALID,0,
2012-08-17, 01:43:04,VALID,916.645,VALID,0,VALID,97.7703,VALID,0,VALID,19.0637,VALID,147,VALID,0,
2012-08-17, 01:44:04,VALID,916.65,VALID,0,VALID,97.7551,VALID,0,VALID,19.0637,VALID,147,VALID,0,
2012-08-17, 01:45:04,VALID,916.657,VALID,0,VALID,97.7627,VALID,0,VALID,19.0637,VALID,147,VALID,0,
2012-08-17, 01:46:04,VALID,916.634,VALID,0,VALID,97.7627,VALID,0,VALID,19.0232,VALID,147,VALID,0,
2012-08-17, 01:47:04,VALID,916.607,VALID,0,VALID,97.7627,VALID,0,VALID,19.0427,VALID,147,VALID,0,
2012-08-17, 01:48:04,VALID,916.59,VALID,0,VALID,97.7551,VALID,0,VALID,19.0637,VALID,147,VALID,0,
2012-08-17, 01:49:04,VALID,916.592,VALID,0,VALID,97.7627,VALID,0,VALID,19.0832,VALID,147,VALID,0,
2012-08-17, 01:50:04,VALID,916.575,VALID,0,VALID,97.7551,VALID,0,VALID,19.0637,VALID,147,VALID,0,
2012-08-17, 01:51:04,VALID,916.558,VALID,0,VALID,97.7551,VALID,0,VALID,19.0637,VALID,147,VALID,0,
2012-08-17, 01:52:04,VALID,916.552,VALID,0,VALID,97.7474,VALID,0,VALID,19.0442,VALID,147,VALID,0,
2012-08-17, 01:53:04,VALID,916.548,VALID,0,VALID,97.7627,VALID,0,VALID,19.0052,VALID,147,VALID,0,
2012-08-17, 01:54:04,VALID,916.519,VALID,0,VALID,97.7551,VALID,0,VALID,19.0037,VALID,147,VALID,0,
2012-08-17, 01:55:04,VALID,916.495,VALID,0,VALID,97.7474,VALID,0,VALID,18.9857,VALID,147,VALID,0,
2012-08-17, 01:56:04,VALID,916.416,VALID,0,VALID,97.7322,VALID,0,VALID,18.9857,VALID,147,VALID,0,
2012-08-17, 01:57:04,VALID,916.373,VALID,0,VALID,97.7779,VALID,0,VALID,18.9662,VALID,147,VALID,0,
2012-08-17, 01:58:04,VALID,916.353,VALID,0,VALID,97.7474,VALID,0,VALID,18.9647,VALID,147,VALID,0,
2012-08-17, 01:59:04,VALID,916.331,VALID,0,VALID,97.7551,VALID,0,VALID,18.9662,VALID,147,VALID,0,
2012-08-17, 02:00:04,VALID,916.341,VALID,0,VALID,97.7627,VALID,0,VALID,18.9647,VALID,147,VALID,0,
2012-08-17, 02:01:04,VALID,916.351,VALID,0,VALID,97.7474,VALID,0,VALID,18.9647,VALID,147,VALID,0,
2012-08-17, 02:02:04,VALID,916.332,VALID,0,VALID,97.7627,VALID,0,VALID,18.9662,VALID,147,VALID,0,
2012-08-17, 02:03:04,VALID,916.364,VALID,0,VALID,97.7703,VALID,0,VALID,18.9257,VALID,147,VALID,0,
2012-08-17, 02:04:04,VALID,916.357,VALID,0,VALID,97.7551,VALID,0,VALID,18.8867,VALID,147,VALID,0,
2012-08-17, 02:05:04,VALID,916.359,VALID,0,VALID,97.7474,VALID,0,VALID,18.8672,VALID,147,VALID,0,
2012-08-17, 02:06:04,VALID,916.355,VALID,0,VALID,97.7551,VALID,0,VALID,18.8867,VALID,147,VALID,0,
2012-08-17, 02:07:04,VALID,916.338,VALID,0,VALID,97.7627,VALID,0,VALID,18.8672,VALID,147,VALID,0,
2012-08-17, 02:08:04,VALID,916.318,VALID,0,VALID,97.7703,VALID,0,VALID,18.8268,VALID,147,VALID,0,
2012-08-17, 02:09:04,VALID,916.32,VALID,0,VALID,97.7474,VALID,0,VALID,18.8672,VALID,147,VALID,0,
2012-08-17, 02:10:04,VALID,916.296,VALID,0,VALID,97.7703,VALID,0,VALID,18.8672,VALID,147,VALID,0,
2012-08-17, 02:11:04,VALID,916.297,VALID,0,VALID,97.7551,VALID,0,VALID,18.8867,VALID,147,VALID,0,
2012-08-17, 02:12:04,VALID,916.294,VALID,0,VALID,97.7551,VALID,0.107441,VALID,18.8853,VALID,147,VALID,0,
2012-08-17, 02:13:04,VALID,916.346,VALID,0,VALID,97.7932,VALID,0,VALID,18.8867,VALID,147,VALID,0,
2012-08-17, 02:14:04,VALID,916.344,VALID,0,VALID,97.7627,VALID,0,VALID,18.9257,VALID,147,VALID,0,
2012-08-17, 02:15:04,VALID,916.335,VALID,0,VALID,97.7627,VALID,0,VALID,18.9257,VALID,147,VALID,0,
2012-08-17, 02:16:04,VALID,916.314,VALID,0,VALID,97.7551,VALID,0,VALID,18.9062,VALID,147,VALID,0,
2012-08-17, 02:17:04,VALID,916.291,VALID,0,VALID,97.7703,VALID,0,VALID,18.9062,VALID,147,VALID,0,
2012-08-17, 02:18:04,VALID,916.273,VALID,0,VALID,97.7779,VALID,0,VALID,18.9048,VALID,147,VALID,0,
2012-08-17, 02:19:04,VALID,916.261,VALID,0,VALID,97.7703,VALID,0,VALID,18.9257,VALID,147,VALID,0,
2012-08-17, 02:20:04,VALID,916.264,VALID,0,VALID,97.7703,VALID,0.107441,VALID,18.9243,VALID,147,VALID,0,
2012-08-17, 02:21:04,VALID,916.233,VALID,0,VALID,97.7779,VALID,0,VALID,18.9633,VALID,147,VALID,0,
2012-08-17, 02:22:04,VALID,916.23,VALID,0,VALID,97.7703,VALID,0,VALID,18.9452,VALID,147,VALID,0,
2012-08-17, 02:23:04,VALID,916.207,VALID,0,VALID,97.7779,VALID,0.107441,VALID,18.9633,VALID,147,VALID,0,
2012-08-17, 02:24:04,VALID,916.211,VALID,0,VALID,97.7856,VALID,0.107441,VALID,18.9842,VALID,147,VALID,0,
2012-08-17, 02:25:04,VALID,916.226,VALID,0,VALID,97.7551,VALID,0,VALID,18.9842,VALID,147,VALID,0,
2012-08-17, 02:26:04,VALID,916.225,VALID,0,VALID,97.7703,VALID,0.107441,VALID,19.0037,VALID,147,VALID,0,
2012-08-17, 02:27:04,VALID,916.239,VALID,0,VALID,97.7703,VALID,0,VALID,19.0037,VALID,147,VALID,0,
2012-08-17, 02:28:04,VALID,916.262,VALID,0,VALID,97.7474,VALID,0,VALID,19.0037,VALID,147,VALID,0,
2012-08-17, 02:29:04,VALID,916.265,VALID,0,VALID,97.7779,VALID,0,VALID,18.9842,VALID,147,VALID,0,
2012-08-17, 02:30:04,VALID,916.275,VALID,0,VALID,97.7703,VALID,0.107441,VALID,18.9828,VALID,147,VALID,0,
2012-08-17, 02:31:04,VALID,916.24,VALID,0,VALID,97.7779,VALID,0.107441,VALID,18.9842,VALID,147,VALID,0,
2012-08-17, 02:32:04,VALID,916.214,VALID,0,VALID,97.7551,VALID,0.107441,VALID,19.0037,VALID,44,VALID,0,
2012-08-17, 02:33:04,VALID,916.185,VALID,0,VALID,97.7703,VALID,0,VALID,19.0037,VALID,44,VALID,0,
2012-08-17, 02:34:04,VALID,916.193,VALID,0,VALID,97.7627,VALID,0,VALID,19.0232,VALID,44,VALID,0,
2012-08-17, 02:35:04,VALID,916.181,VALID,0,VALID,97.7627,VALID,0,VALID,19.0622,VALID,44,VALID,0,
2012-08-17, 02:36:04,VALID,916.191,VALID,0,VALID,97.7551,VALID,0,VALID,19.0622,VALID,22,VALID,0,
2012-08-17, 02:37:04,VALID,916.214,VALID,0,VALID,97.7551,VALID,0,VALID,19.0817,VALID,29,VALID,0,
2012-08-17, 02:38:04,VALID,916.224,VALID,0,VALID,97.7627,VALID,0,VALID,19.0608,VALID,41,VALID,0,
2012-08-17, 02:39:04,VALID,916.27,VALID,0,VALID,97.7551,VALID,0,VALID,19.0608,VALID,41,VALID,0,
2012-08-17, 02:40:04,VALID,916.295,VALID,0,VALID,97.7703,VALID,0,VALID,19.0608,VALID,36,VALID,0,
2012-08-17, 02:41:04,VALID,916.309,VALID,0,VALID,97.7703,VALID,0,VALID,19.0817,VALID,10,VALID,0,
2012-08-17, 02:42:04,VALID,916.297,VALID,0,VALID,97.7474,VALID,0,VALID,19.0803,VALID,10,VALID,0,
2012-08-17, 02:43:04,VALID,916.258,VALID,0,VALID,97.7551,VALID,0,VALID,19.1012,VALID,10,VALID,0,
2012-08-17, 02:44:04,VALID,916.228,VALID,0,VALID,97.7551,VALID,0,VALID,19.0803,VALID,10,VALID,0,
2012-08-17, 02:45:04,VALID,916.189,VALID,0,VALID,97.7627,VALID,0,VALID,19.1012,VALID,10,VALID,0,
2012-08-17, 02:46:04,VALID,916.132,VALID,0,VALID,97.7703,VALID,0,VALID,19.1012,VALID,10,VALID,0,
2012-08-17, 02:47:04,VALID,916.063,VALID,0,VALID,97.7551,VALID,0,VALID,19.1207,VALID,10,VALID,0,
2012-08-17, 02:48:04,VALID,916.044,VALID,0,VALID,97.7627,VALID,0,VALID,19.1402,VALID,10,VALID,0,
2012-08-17, 02:49:04,VALID,915.981,VALID,0,VALID,97.7703,VALID,0,VALID,19.1207,VALID,10,VALID,0,
2012-08-17, 02:50:04,VALID,915.987,VALID,0,VALID,97.7551,VALID,0,VALID,19.1207,VALID,10,VALID,0,
2012-08-17, 02:51:04,VALID,916.012,VALID,0,VALID,97.7627,VALID,0,VALID,19.1207,VALID,10,VALID,0,
2012-08-17, 02:52:04,VALID,915.97,VALID,0,VALID,97.7703,VALID,0.107441,VALID,19.1012,VALID,10,VALID,0,
2012-08-17, 02:53:04,VALID,915.991,VALID,0,VALID,97.7856,VALID,0,VALID,19.1012,VALID,10,VALID,0,
2012-08-17, 02:54:04,VALID,915.993,VALID,0,VALID,97.7551,VALID,0,VALID,19.0622,VALID,10,VALID,0,
2012-08-17, 02:55:04,VALID,915.974,VALID,0,VALID,97.7703,VALID,0,VALID,19.0622,VALID,10,VALID,0,
2012-08-17, 02:56:04,VALID,915.989,VALID,0,VALID,97.7703,VALID,0,VALID,19.0622,VALID,10,VALID,0,
2012-08-17, 02:57:04,VALID,915.97,VALID,0,VALID,97.7703,VALID,0,VALID,19.0622,VALID,10,VALID,0,
2012-08-17, 02:58:04,VALID,915.967,VALID,0,VALID,97.7627,VALID,0,VALID,19.0622,VALID,10,VALID,0,
2012-08-17, 02:59:04,VALID,915.95,VALID,0,VALID,97.7703,VALID,0,VALID,19.0622,VALID,10,VALID,0,
2012-08-17, 03:00:04,VALID,915.918,VALID,0,VALID,97.7627,VALID,0,VALID,19.0622,VALID,10,VALID,0,
2012-08-17, 03:01:04,VALID,915.917,VALID,0,VALID,97.7703,VALID,0,VALID,19.0817,VALID,10,VALID,0,
2012-08-17, 03:02:04,VALID,915.882,VALID,0,VALID,97.7779,VALID,0,VALID,19.0817,VALID,10,VALID,0,
2012-08-17, 03:03:04,VALID,915.832,VALID,0,VALID,97.7779,VALID,0,VALID,19.1027,VALID,10,VALID,0,
2012-08-17, 03:04:04,VALID,915.763,VALID,0,VALID,97.7703,VALID,0,VALID,19.0817,VALID,10,VALID,0,
2012-08-17, 03:05:04,VALID,915.721,VALID,0,VALID,97.7703,VALID,0,VALID,19.0832,VALID,10,VALID,0,
2012-08-17, 03:06:04,VALID,915.671,VALID,0,VALID,97.7779,VALID,0,VALID,19.0622,VALID,10,VALID,0,
2012-08-17, 03:07:04,VALID,915.625,VALID,0,VALID,97.7779,VALID,0,VALID,19.0622,VALID,10,VALID,0,
2012-08-17, 03:08:04,VALID,915.645,VALID,0,VALID,97.7779,VALID,0,VALID,19.0817,VALID,10,VALID,0,
2012-08-17, 03:09:04,VALID,915.647,VALID,0,VALID,97.7856,VALID,0,VALID,19.0817,VALID,10,VALID,0,
2012-08-17, 03:10:04,VALID,915.674,VALID,0,VALID,97.7856,VALID,0,VALID,19.1027,VALID,10,VALID,0,
2012-08-17, 03:11:04,VALID,915.719,VALID,0,VALID,97.7856,VALID,0,VALID,19.0817,VALID,10,VALID,0,
2012-08-17, 03:12:04,VALID,915.737,VALID,0,VALID,97.7703,VALID,0,VALID,19.0622,VALID,10,VALID,0,
2012-08-17, 03:13:04,VALID,915.751,VALID,0,VALID,97.7779,VALID,0,VALID,19.0622,VALID,10,VALID,0,
2012-08-17, 03:14:04,VALID,915.805,VALID,0,VALID,97.7703,VALID,0,VALID,19.0637,VALID,10,VALID,0,
2012-08-17, 03:15:04,VALID,915.775,VALID,0,VALID,97.7703,VALID,0,VALID,19.0832,VALID,10,VALID,0,
2012-08-17, 03:16:04,VALID,915.768,VALID,0,VALID,97.7779,VALID,0,VALID,19.0622,VALID,10,VALID,0,
2012-08-17, 03:17:04,VALID,915.747,VALID,0,VALID,97.7779,VALID,0,VALID,19.0442,VALID,10,VALID,0,
2012-08-17, 03:18:04,VALID,915.72,VALID,0,VALID,97.7856,VALID,0,VALID,19.0427,VALID,10,VALID,0,
2012-08-17, 03:19:04,VALID,915.686,VALID,0,VALID,97.7856,VALID,0.107441,VALID,19.0427,VALID,10,VALID,0,
2012-08-17, 03:20:04,VALID,915.637,VALID,0,VALID,97.7779,VALID,0,VALID,19.0023,VALID,10,VALID,0,
2012-08-17, 03:21:04,VALID,915.58,VALID,0,VALID,97.7627,VALID,0.107441,VALID,19.0023,VALID,10,VALID,0,
2012-08-17, 03:22:04,VALID,915.579,VALID,0,VALID,97.7703,VALID,0.107441,VALID,19.0023,VALID,10,VALID,0,
2012-08-17, 03:23:04,VALID,915.587,VALID,0,VALID,97.7779,VALID,0,VALID,19.0218,VALID,10,VALID,0,
2012-08-17, 03:24:04,VALID,915.574,VALID,0,VALID,97.7856,VALID,0,VALID,19.0218,VALID,10,VALID,0,
2012-08-17, 03:25:04,VALID,915.554,VALID,0,VALID,97.7779,VALID,0.107441,VALID,19.0218,VALID,10,VALID,0,
2012-08-17, 03:26:04,VALID,915.548,VALID,0,VALID,97.7779,VALID,0.107441,VALID,19.0218,VALID,10,VALID,0,
2012-08-17, 03:27:04,VALID,915.537,VALID,0,VALID,97.7932,VALID,0.107441,VALID,19.0413,VALID,10,VALID,0,
2012-08-17, 03:28:04,VALID,915.528,VALID,0,VALID,97.7932,VALID,0.107441,VALID,19.0413,VALID,10,VALID,0,
2012-08-17, 03:29:04,VALID,915.498,VALID,0,VALID,97.7856,VALID,0,VALID,19.0608,VALID,10,VALID,0,
2012-08-17, 03:30:04,VALID,915.539,VALID,0,VALID,97.7703,VALID,0.107441,VALID,19.0817,VALID,10,VALID,0,
2012-08-17, 03:31:04,VALID,915.552,VALID,0,VALID,97.7856,VALID,0,VALID,19.0413,VALID,10,VALID,0,
2012-08-17, 03:32:04,VALID,915.57,VALID,0,VALID,97.7703,VALID,0,VALID,19.0803,VALID,10,VALID,0,
2012-08-17, 03:33:04,VALID,915.603,VALID,0,VALID,97.7932,VALID,0.107441,VALID,19.0803,VALID,10,VALID,0,
2012-08-17, 03:34:04,VALID,915.597,VALID,0,VALID,97.7779,VALID,0,VALID,19.0803,VALID,10,VALID,0,
2012-08-17, 03:35:04,VALID,915.623,VALID,0,VALID,97.8008,VALID,0,VALID,19.0218,VALID,10,VALID,0,
2012-08-17, 03:36:04,VALID,915.623,VALID,0,VALID,97.8008,VALID,0.107441,VALID,19.0023,VALID,10,VALID,0,
2012-08-17, 03:37:04,VALID,915.594,VALID,0,VALID,97.7932,VALID,0,VALID,18.9633,VALID,10,VALID,0,
2012-08-17, 03:38:04,VALID,915.562,VALID,0,VALID,97.7932,VALID,0.107441,VALID,18.9243,VALID,10,VALID,0,
2012-08-17, 03:39:04,VALID,915.566,VALID,0,VALID,97.8008,VALID,0,VALID,18.9243,VALID,10,VALID,0,
2012-08-17, 03:40:04,VALID,915.53,VALID,0,VALID,97.8084,VALID,0,VALID,18.9452,VALID,10,VALID,0,
2012-08-17, 03:41:04,VALID,915.513,VALID,0,VALID,97.8084,VALID,0.107441,VALID,18.9257,VALID,10,VALID,0,
2012-08-17, 03:42:04,VALID,915.5,VALID,0,VALID,97.7932,VALID,0,VALID,18.8853,VALID,10,VALID,0,
2012-08-17, 03:43:04,VALID,915.488,VALID,0,VALID,97.816,VALID,0.107441,VALID,18.8867,VALID,10,VALID,0,
2012-08-17, 03:44:04,VALID,915.44,VALID,0,VALID,97.7932,VALID,0,VALID,18.8672,VALID,9,VALID,0,
2012-08-17, 03:45:04,VALID,915.457,VALID,0,VALID,97.8084,VALID,0.107441,VALID,18.8268,VALID,10,VALID,0,
2012-08-17, 03:46:04,VALID,915.458,VALID,0,VALID,97.7856,VALID,0,VALID,18.8282,VALID,10,VALID,0,
2012-08-17, 03:47:04,VALID,915.456,VALID,0,VALID,97.8084,VALID,0.107441,VALID,18.8282,VALID,10,VALID,0,
2012-08-17, 03:48:04,VALID,915.416,VALID,0,VALID,97.8084,VALID,0.107441,VALID,18.8282,VALID,10,VALID,0,
2012-08-17, 03:49:04,VALID,915.427,VALID,0,VALID,97.816,VALID,0.107441,VALID,18.8282,VALID,9,VALID,0,
2012-08-17, 03:50:04,VALID,915.428,VALID,0,VALID,97.7932,VALID,0,VALID,18.8073,VALID,9,VALID,0,
2012-08-17, 03:51:04,VALID,915.424,VALID,0,VALID,97.8008,VALID,0.107441,VALID,18.7878,VALID,10,VALID,0,
2012-08-17, 03:52:04,VALID,915.435,VALID,0,VALID,97.816,VALID,0.107441,VALID,18.7683,VALID,9,VALID,0,
2012-08-17, 03:53:04,VALID,915.411,VALID,0,VALID,97.8237,VALID,0.107441,VALID,18.7683,VALID,52,VALID,0,
2012-08-17, 03:54:04,VALID,915.405,VALID,0,VALID,97.8084,VALID,0,VALID,18.7683,VALID,52,VALID,0,
2012-08-17, 03:55:04,VALID,915.393,VALID,0,VALID,97.8313,VALID,0.107441,VALID,18.7697,VALID,52,VALID,0,
2012-08-17, 03:56:04,VALID,915.407,VALID,0,VALID,97.8313,VALID,0.107441,VALID,18.7488,VALID,52,VALID,0,
2012-08-17, 03:57:04,VALID,915.366,VALID,0,VALID,97.8237,VALID,0.107441,VALID,18.7293,VALID,52,VALID,0,